Regional Weather Roundup
Issued by NWS

Home | Current Version | Previous Version | Graphics & Text | Print | Product List | Glossary On
Versions: 1 2 3 4 5 6 7 8 9 10 11 12 13 14 15 16 17 18 19 20 21 22 23 24 25 26 27 28
000
ASUS45 KBOI 300210
RWRID

IDAHO REGIONAL WEATHER ROUNDUP
NATIONAL WEATHER SERVICE BOISE ID
800 PM MDT SUN MAY 29 2016

NOTE: "FAIR" INDICATES FEW OR NO CLOUDS BELOW 12000 FEET
WITH NO SIGNIFICANT WEATHER AND/OR OBSTRUCTIONS TO VISIBILITY

IDZ012-014-300300-
SOUTHWEST IDAHO


CITY           SKY/WX    TMP DP  RH WIND       PRES   REMARKS
BOISE          SUNNY     78  31  17 N8        29.92S
CALDWELL       SUNNY     78  42  27 N5        29.90F
MOUNTAIN HOME  SUNNY     81  44  26 NW18      29.91R
$$

IDZ016-017-300300-
SOUTHCENTRAL IDAHO


CITY           SKY/WX    TMP DP  RH WIND       PRES   REMARKS
BURLEY         CLOUDY    67  37  33 SW18G35   30.01R
JEROME         PTSUNNY   71  39  31 S5        29.98S
TWIN FALLS     PTSUNNY   63  48  58 S8        29.99R
$$

IDZ019>023-300300-
SOUTHEAST IDAHO


CITY           SKY/WX    TMP DP  RH WIND       PRES   REMARKS
IDAHO FALLS    CLOUDY    66  40  38 S16       30.00R
POCATELLO      CLOUDY    65  39  38 S10       30.00F
REXBURG        CLOUDY    69  39  33 S18       29.98S
$$

IDZ006-010-011-018-031-032-300300-
CENTRAL IDAHO MOUNTAINS


CITY           SKY/WX    TMP DP  RH WIND       PRES   REMARKS
MCCALL         MOSUNNY   62  30  29 SW7       30.01S
HAILEY         MOSUNNY   66  32  28 W8        30.04R
STANLEY          N/A     62  24  23 VRB5      30.08S
SALMON         SUNNY     72  27  18 W12       29.90S
CHALLIS        MOSUNNY   69  21  16 W17       29.98S
$$

IDZ002-004-006-007-026-300300-
NORTHERN IDAHO


CITY           SKY/WX    TMP DP  RH WIND       PRES   REMARKS
LEWISTON       MOSUNNY   73  38  27 NW18G31   29.93S
LOWELL           N/A     65  51  60 CALM      29.97S
COEUR D`ALENE  SUNNY     66  36  32 SW13      29.92R
MULLAN PASS    MOSUNNY   49  31  49 VRB7G17   30.04S
$$




USA.gov is the U.S. government's official web portal to all federal, state and local government web resources and services.